This is the latest recevied weather packets stored in our database for station/object W8KVG. If no packets are shown the sender has not sent any weather packets the latest 10 day(s).
| Time | Temp. | Humidity | Pressure | Rain* | Wind** | Luminosity | Snow |
|---|---|---|---|---|---|---|---|
| 1777605543 | 3.33° C | 94% | 1014.3 hPa | 0 mm | - | 0 W/m² | - |
| 1777605239 | 3.89° C | 93% | 1014.5 hPa | 0 mm | - | 0 W/m² | - |
| 1777604936 | 3.89° C | 94% | 1014.4 hPa | 0 mm | - | 0 W/m² | - |
| 1777604635 | 3.89° C | 93% | 1014.5 hPa | 0 mm | - | 0 W/m² | - |
| 1777604333 | 3.33° C | 94% | 1014.5 hPa | 0 mm | - | 0 W/m² | - |
| 1777604027 | 3.33° C | 93% | 1014.3 hPa | 0 mm | - | 0 W/m² | - |
| 1777603725 | 3.89° C | 93% | 1014.5 hPa | 0 mm | - | 0 W/m² | - |
| 1777603421 | 3.89° C | 93% | 1014.5 hPa | 0 mm | - | 0 W/m² | - |
| 1777603124 | 3.89° C | 92% | 1014.5 hPa | 0 mm | - | 0 W/m² | - |
| 1777602812 | 4.44° C | 92% | 1014.4 hPa | 0 mm | - | 0 W/m² | - |
| 1777602507 | 4.44° C | 92% | 1014.4 hPa | 0 mm | - | 0 W/m² | - |
| 1777602204 | 4.44° C | 92% | 1014.4 hPa | 0 mm | - | 0 W/m² | - |
| 1777601899 | 4.44° C | 91% | 1014.4 hPa | 0 mm | - | 0 W/m² | - |
| 1777601594 | 4.44° C | 91% | 1014.3 hPa | 0 mm | - | 0 W/m² | - |
| 1777601290 | 4.44° C | 90% | 1014.3 hPa | 0 mm | - | 0 W/m² | - |
| 1777600987 | 5° C | 90% | 1014.3 hPa | 0 mm | - | 0 W/m² | - |
| 1777600683 | 5° C | 88% | 1014.1 hPa | 0 mm | - | 0 W/m² | - |
| 1777600379 | 5.56° C | 87% | 1014 hPa | 0 mm | - | 0 W/m² | - |
| 1777600075 | 6.11° C | 86% | 1014.1 hPa | 0 mm | - | 0 W/m² | - |
| 1777599770 | 6.67° C | 83% | 1014.1 hPa | 0 mm | - | 0 W/m² | - |
| 1777599467 | 6.67° C | 83% | 1013.9 hPa | 0 mm | - | 0 W/m² | - |
| 1777599164 | 6.67° C | 82% | 1013.8 hPa | 0 mm | - | 0 W/m² | - |
| 1777598858 | 6.67° C | 82% | 1014.1 hPa | 0 mm | - | 0 W/m² | - |
| 1777598558 | 6.67° C | 81% | 1013.8 hPa | 0 mm | - | 0 W/m² | - |
| 1777598252 | 6.67° C | 81% | 1013.8 hPa | 0 mm | - | 0 W/m² | - |
* Rain latest hour (hover to see other rain measurements)
** Current wind speed in m/s (hover to see current wind gust speed)